Theta_e
310 312 313 311 310 312 311 309 307 306 305 308 307 308 308 306 298 298 296 293 293 292 290 291 291 290 290 290 290 289 289 289 288 288 287 286 286 287 286 285 285 285 285 284
312 313 311 311 310 309 308 309 307 306 305 305 306 306 306 306 303 300 300 295 294 292 288 289 289 289 290 290 290 289 288 288 288 287 286 285 284 285 284 283 284 284 283 283
312 313 309 310 308 309 307 307 307 308 304 302 301 305 302 303 302 301 299 298 295 293 290 289 288 289 289 289 289 289 288 287 287 286 285 284 283 282 282 281 282 282 282 281
312 309 308 307 308 307 310 305 306 306 304 306 304 311 304 304 304 301 300 296 295 292 290 289 288 287 289 290 289 288 288 286 286 285 284 283 281 280 281 281 281 281 280 281
314 307 307 309 308 305 308 304 304 304 304 301 303 302 302 299 302 304 301 299 295 291 290 289 288 288 289 289 288 288 287 286 285 284 283 282 281 280 280 279 279 278 279 279
308 305 304 307 304 304 303 305 301 297 298 305 305 304 304 300 301 302 300 296 294 289 289 288 288 289 289 289 288 288 287 285 284 283 282 281 279 279 278 279 278 278 277 278
311 307 304 305 307 306 304 306 311 309 305 311 300 299 306 303 300 300 300 296 292 288 287 287 287 287 288 288 287 287 286 284 283 282 281 280 279 278 277 277 276 276 276 276
313 313 305 303 307 307 303 306 311 308 308 309 298 307 307 300 299 293 291 290 291 287 287 288 287 287 288 288 287 286 285 283 282 281 280 279 278 277 277 276 275 275 275 275
313 312 303 304 303 304 304 305 305 305 288 299 308 304 302 301 297 294 291 292 290 287 287 287 287 287 287 287 286 286 284 282 281 280 279 278 277 277 276 275 274 274 274 275
312 315 304 300 301 298 301 300 305 304 307 302 307 306 308 308 303 300 292 291 290 286 287 287 286 286 287 287 286 285 283 281 280 279 277 276 276 276 275 274 273 273 273 273
308 312 307 301 302 302 299 301 300 302 303 307 304 310 304 306 304 303 296 292 289 287 287 287 286 286 287 286 285 284 282 280 279 277 276 275 275 275 274 273 272 272 272 272
306 308 312 309 298 296 301 302 303 308 307 301 303 312 302 303 302 299 295 292 288 288 287 286 285 285 285 285 284 283 281 279 277 275 275 275 274 273 272 271 271 271 271 271
305 308 313 311 304 299 298 300 301 301 301 304 307 311 299 298 297 293 293 291 288 286 284 285 284 283 283 283 283 281 279 277 275 274 274 274 272 271 270 270 270 270 270 270
308 308 309 311 309 304 302 300 301 305 308 309 309 310 309 308 308 307 298 289 288 287 286 286 285 283 282 283 281 280 277 276 274 274 272 271 270 270 269 269 269 269 269 268
306 311 310 309 309 301 303 303 303 302 305 308 309 309 309 308 308 307 306 299 289 286 285 285 285 282 280 280 279 277 276 274 273 272 271 270 269 269 269 268 268 268 267 267
301 310 309 311 309 306 308 309 308 302 303 303 305 307 308 308 308 307 306 301 291 287 286 286 285 283 280 279 277 276 274 273 272 270 270 268 268 268 267 267 267 266 266 265
300 304 301 311 307 305 308 309 310 310 309 307 306 307 307 307 307 306 305 295 292 289 287 285 284 283 280 278 277 274 272 271 270 269 268 267 266 266 266 266 265 264 264 264
302 302 307 311 302 312 310 308 306 308 308 308 308 308 308 308 307 295 296 295 290 288 286 285 282 278 277 276 273 272 271 270 269 268 266 266 265 265 265 264 264 263 263 264
305 305 308 311 311 309 308 305 303 303 308 307 306 307 307 306 293 301 290 291 291 287 285 284 279 276 275 273 272 271 270 269 267 266 265 265 265 264 264 263 263 262 263 263
307 307 310 312 313 314 309 307 297 300 309 308 307 306 305 296 303 305 291 286 285 284 280 277 275 273 272 270 270 269 268 267 265 265 264 265 265 265 263 263 262 262 262 263
306 308 311 312 315 312 309 293 296 307 310 307 306 306 305 299 303 292 285 283 281 279 276 274 273 271 270 269 269 268 267 265 264 264 265 265 265 264 264 262 262 261 262 263
311 310 311 309 313 315 304 294 305 308 308 305 298 298 298 297 288 285 283 280 277 276 275 272 271 269 268 268 268 267 266 264 264 264 265 266 266 265 263 262 262 262 262 263
313 311 314 312 312 306 302 309 306 307 308 304 296 294 296 291 287 284 281 279 277 275 274 272 270 268 267 266 266 266 263 263 264 264 265 265 264 264 263 261 261 261 263 264
310 310 311 311 309 307 302 303 307 307 304 303 293 291 291 289 286 284 281 279 277 275 273 271 269 267 265 264 264 264 263 263 263 263 264 263 263 263 262 261 261 262 263 265
311 309 311 311 310 309 309 308 305 299 295 293 290 291 291 289 286 284 281 278 277 274 271 271 270 268 265 263 262 262 262 263 263 262 262 262 261 260 260 261 261 263 264 267
312 312 312 313 310 310 310 309 307 304 298 294 292 289 289 289 286 283 281 278 276 273 271 270 269 267 264 263 262 261 262 262 262 261 261 260 259 259 259 259 260 262 264 265
Wind_Speed
3 2 6 8 7 4 4 4 7 6 5 4 10 14 21 9 11 15 12 13 16 18 13 27 27 22 18 16 13 8 3 2 4 6 12 13 15 17 17 16 20 23 25 26
3 8 6 4 3 5 4 3 8 8 1 6 11 16 16 17 11 13 16 16 20 16 13 22 30 24 21 18 12 8 2 3 4 6 9 10 15 12 17 16 22 22 25 26
7 3 5 5 4 5 4 5 5 7 6 5 8 9 6 7 7 8 9 11 15 19 18 13 20 27 22 19 15 10 4 3 5 7 11 13 13 12 9 21 25 25 26 26
7 2 7 4 6 7 4 5 3 4 5 4 5 11 5 7 11 7 9 10 13 16 15 15 21 24 24 19 15 12 6 4 5 8 10 12 13 15 18 23 25 27 26 27
8 8 5 5 7 8 7 3 2 1 3 4 4 5 6 3 8 19 9 13 13 15 18 18 21 25 26 19 16 12 7 6 7 8 10 13 17 18 21 24 27 28 28 28
6 2 6 6 3 3 4 2 5 4 2 2 6 7 4 6 8 7 6 7 9 11 14 13 23 30 26 19 15 13 8 7 7 9 11 13 17 19 23 27 29 28 30 30
1 5 2 3 4 2 3 5 3 5 3 9 4 3 13 8 11 10 10 5 8 10 12 14 17 20 26 22 17 14 9 8 8 10 12 15 16 19 22 26 27 29 27 26
5 9 9 6 7 7 6 8 6 8 4 9 2 9 7 10 9 6 5 8 7 9 13 16 15 21 26 23 18 15 9 8 9 11 14 15 18 19 23 26 28 29 30 30
7 8 2 1 2 4 5 6 3 5 3 3 5 8 7 10 9 8 8 6 9 10 13 15 15 21 25 21 18 14 8 8 9 12 14 17 18 21 24 28 29 29 31 33
4 5 2 2 2 2 4 3 4 2 3 6 10 14 13 13 9 10 8 11 9 9 11 13 14 21 25 20 17 12 8 9 10 12 14 17 20 22 25 28 29 29 32 34
5 5 3 3 9 11 3 3 1 2 5 6 4 13 6 8 10 11 11 11 10 13 14 13 13 22 26 20 18 12 9 9 10 12 15 18 21 24 26 28 29 29 30 33
7 5 8 15 1 1 2 8 12 7 7 3 3 22 2 7 9 7 8 10 8 11 12 13 13 19 22 23 19 13 9 8 9 12 15 19 21 23 26 27 28 29 30 32
10 4 7 7 1 2 7 8 7 1 2 12 6 20 4 6 9 8 10 9 8 10 10 11 11 12 20 23 18 13 9 9 10 12 15 19 22 23 24 26 28 29 30 31
16 8 11 19 13 6 6 12 15 23 13 17 30 29 43 21 24 27 15 10 10 13 14 15 13 13 18 21 18 14 10 8 9 12 15 18 20 21 25 26 27 27 29 32
9 14 16 21 29 6 8 13 17 21 29 18 35 27 41 27 30 29 17 9 9 11 14 17 17 13 16 20 17 11 7 7 9 12 16 18 20 22 22 24 25 26 27 29
3 12 11 25 22 9 10 33 17 24 27 24 29 37 31 30 28 27 27 11 11 14 17 17 16 15 12 13 13 7 6 5 9 12 14 18 20 20 21 22 25 27 27 28
8 5 3 25 7 6 8 30 30 34 28 26 27 42 33 31 27 26 20 11 13 15 16 16 18 15 16 16 13 7 1 6 9 11 16 20 22 23 23 26 28 27 28 29
10 7 9 16 4 15 32 24 12 20 30 28 30 31 33 29 26 7 10 11 13 12 13 15 13 15 19 17 10 4 2 4 7 12 16 20 20 24 25 27 26 27 27 28
19 11 11 13 17 25 27 17 8 10 26 26 18 29 30 25 6 24 11 12 12 14 15 13 21 23 22 17 11 6 2 5 8 11 14 18 22 27 29 30 27 28 30 31
19 21 19 16 16 22 32 24 6 4 22 41 24 26 23 7 7 20 8 9 8 11 15 19 24 25 23 15 10 7 4 3 6 9 13 18 22 25 27 29 30 29 28 29
4 9 22 23 21 15 24 9 5 10 39 2 20 23 17 11 12 2 9 7 11 14 19 25 23 20 20 15 12 9 5 1 3 8 13 17 19 22 24 27 30 28 29 29
17 10 9 10 12 21 7 6 18 33 35 16 7 7 11 13 6 7 9 13 15 17 18 22 22 19 18 15 14 10 7 2 3 9 12 15 18 21 24 27 30 25 26 27
16 18 17 14 9 7 11 26 33 34 28 19 5 5 11 12 9 13 12 14 15 16 17 21 23 20 15 14 13 11 6 3 5 9 12 15 19 21 23 23 27 23 22 24
15 17 18 20 17 19 19 25 26 24 27 17 7 9 14 11 14 14 15 15 15 14 13 21 21 16 14 13 9 8 5 4 6 8 12 14 17 22 23 22 19 22 22 24
19 13 21 21 24 22 25 28 28 16 6 11 8 10 17 13 15 17 14 16 15 14 20 22 19 17 16 15 11 8 5 5 7 8 10 13 14 17 20 21 18 19 21 25
17 23 17 18 29 19 32 32 20 17 23 21 16 10 13 16 18 16 16 16 18 16 22 18 18 18 17 15 12 8 6 5 7 10 10 12 14 16 14 15 24 18 20 23
Wind_Direction
7 89 215 228 202 180 166 201 242 252 239 241 249 248 271 252 219 235 221 208 212 212 198 195 188 183 178 179 179 174 175 239 266 311 337 334 329 333 337 340 348 347 343 342
37 237 204 127 144 173 167 228 264 280 307 192 268 258 261 256 246 225 221 215 215 203 188 190 188 185 185 186 183 184 201 249 263 299 318 321 322 319 330 332 339 340 337 335
178 209 114 151 172 173 214 197 239 240 327 253 298 268 238 274 265 246 223 222 214 206 198 189 189 191 190 188 191 196 218 280 268 287 311 320 330 321 319 325 333 334 329 328
231 203 173 171 217 155 244 213 237 289 4 260 23 290 240 245 273 246 237 214 212 202 199 187 189 192 192 193 193 201 221 279 276 286 308 321 319 314 319 324 326 324 326 325
240 171 177 191 216 166 224 136 162 127 226 347 240 277 259 21 260 265 251 227 217 201 191 188 188 189 195 192 196 203 227 287 285 295 310 319 317 320 321 322 322 321 322 322
248 313 174 205 82 155 127 91 59 59 63 293 223 192 211 185 209 253 249 229 208 195 198 189 181 189 193 191 196 204 233 281 292 305 317 320 313 323 323 326 322 319 316 318
281 212 175 153 112 50 103 75 317 324 347 239 163 216 254 229 224 223 251 269 218 190 183 179 178 181 186 190 198 206 237 280 298 312 318 317 314 319 319 321 315 311 305 298
187 273 177 177 195 180 177 170 168 233 231 280 346 245 266 227 255 256 240 250 227 187 189 193 184 181 186 193 198 203 234 276 299 311 315 315 319 324 318 316 313 301 297 299
178 263 105 160 142 141 183 189 167 99 112 343 241 274 281 260 274 262 257 244 228 196 194 191 179 183 189 193 198 205 240 271 296 311 316 320 322 323 318 318 315 302 305 305
223 302 160 155 133 40 176 170 77 13 259 263 267 276 254 244 239 242 234 230 225 199 198 193 182 183 192 195 194 207 246 281 299 312 319 317 322 324 321 318 313 308 306 302
145 154 228 124 211 168 129 216 108 160 163 204 272 267 207 228 196 224 224 223 210 199 200 196 187 181 190 191 192 213 241 273 297 313 314 320 326 325 320 314 311 308 303 301
202 156 232 236 208 334 219 200 176 202 228 253 142 270 202 212 214 221 227 232 213 202 195 194 184 170 181 187 195 214 238 275 300 304 317 325 324 324 319 313 310 307 299 296
177 217 249 262 93 18 221 199 222 252 142 206 180 253 116 209 244 223 234 226 214 199 184 183 174 183 182 187 197 211 234 264 291 307 323 325 326 326 315 309 308 306 300 297
161 179 199 234 233 132 186 219 218 220 229 233 233 256 268 264 276 272 262 226 215 203 194 192 189 187 180 186 194 209 226 255 297 318 328 325 329 318 312 310 307 303 304 304
173 231 227 247 256 183 213 238 218 217 231 218 250 244 254 264 265 273 277 238 208 194 195 198 194 180 175 182 192 204 235 277 313 328 330 333 319 315 313 309 306 309 310 306
212 250 247 255 255 205 250 255 238 232 239 244 253 260 260 268 278 281 277 254 211 204 207 200 190 172 174 173 183 195 236 311 334 332 336 323 319 317 316 314 320 318 314 308
174 191 199 253 234 119 267 248 240 255 243 234 244 252 273 271 267 264 268 209 217 211 200 187 182 167 160 159 177 185 314 335 343 333 327 332 327 324 325 327 327 319 314 313
216 210 226 251 95 229 251 268 214 235 253 241 246 261 260 263 272 250 224 208 213 196 183 181 167 135 140 155 145 141 22 348 337 334 332 336 331 329 329 329 329 319 317 314
229 218 239 232 235 254 284 237 164 200 266 251 222 245 255 260 339 280 207 208 205 186 177 165 145 135 145 147 143 126 82 6 351 339 335 331 335 336 334 332 325 322 316 313
226 229 235 235 240 245 248 272 156 107 269 261 222 241 245 142 237 259 161 167 144 134 138 136 130 131 134 136 132 116 85 24 340 339 338 340 340 337 333 332 325 316 311 310
165 208 224 233 244 247 254 140 134 194 252 223 211 226 232 195 219 123 112 103 125 131 130 125 125 124 132 137 136 126 132 177 328 345 347 345 341 337 337 330 321 317 316 314
213 188 213 230 245 254 173 116 208 239 257 260 208 191 192 210 140 138 140 141 135 131 129 128 125 127 139 146 146 149 167 173 4 358 357 350 345 346 339 333 324 322 318 317
234 209 220 199 206 206 192 217 223 238 242 237 181 196 201 177 173 158 151 149 145 143 140 139 134 134 147 153 159 162 153 97 25 10 10 359 353 351 344 332 321 324 325 325
222 228 228 239 232 232 222 228 235 231 233 235 201 179 179 184 165 162 154 151 147 147 144 141 138 141 146 160 153 143 126 83 45 26 20 5 356 351 347 334 328 325 329 330
222 195 223 243 245 246 250 244 238 233 222 202 183 186 194 174 179 160 158 157 154 150 148 152 152 149 153 162 151 142 120 86 67 48 28 6 359 349 339 339 333 333 334 339
220 223 217 229 230 222 242 249 239 217 217 210 191 191 197 190 171 162 161 159 154 151 150 151 148 147 155 157 149 141 128 100 72 61 29 7 356 351 336 328 334 356 352 350